Flag for Faroe Islands Weather past 2 weeks in Tórshavn, Faroe Islands, Faroe Islands

Now
36 °F

Light rain. Passing clouds.


Feels Like: 32 °F
Forecast: N/A
Wind: 5 mph from Northwest

Location: Soervaag / Vagar

Current Time: Dec 26, 2014 at 7:24:57 PM

Latest Report: Dec 26, 2014 at 6:50 PM


Visibility: N/A

Pressure: 29.74 "Hg

Humidity: 93%

Dew point: 34 °F

Location of TórshavnLocation

Historic Weather in Tórshavn — Graph

°F

Tórshavn temperature yesterday

Maximum temperature yesterday: 37 °F (at 1:50 PM)
Minimum temperature yesterday: 27 °F (at 7:20 AM)
Average temperature yesterday: 32 °F

Past Weeks' High & Low Weather Summary

 TemperatureHumidityPressure
High46 °F (Dec 21, 3:20 AM)100% (Dec 17, 1:20 AM)30.27 "Hg (Dec 17, 1:20 AM)
Low27 °F (Dec 13, 8:20 AM)37% (Dec 15, 8:20 AM)28.50 "Hg (Dec 14, 11:50 AM)
Average36 °F79%29.28 "Hg
* Reported Dec 11 6:20 PM — Dec 26 6:20 PM, Tórshavn, Weather by CustomWeather, © 2014

Note: Actual official high and low records may vary slightly from our data, if they occured in-between our weather recording intervals... More about our weather records

Advertising

Tórshavn weather history for previous 24 hours

 ConditionsComfort  
Time TempWeatherWind HumidityBarometerVisibility
6:20 PM
Dec 26
36 °FLight rain. Overcast.16 mph93%29.74 "Hg5 mi
5:50 PM36 °FSprinkles. Passing clouds.2 mph93%29.77 "HgN/A
5:20 PM37 °FRain showers. Passing clouds.13 mph87%29.77 "Hg2 mi
4:20 PM34 °FLight rain. Mostly cloudy.1 mph100%29.80 "Hg4 mi
3:20 PM36 °FRain showers. Overcast.13 mph87%29.83 "Hg2 mi
2:50 PM39 °FSprinkles. Partly sunny.15 mph87%29.83 "HgN/A
2:20 PM36 °FRain showers. Partly sunny.13 mph100%29.86 "HgN/A
1:50 PM36 °FRain showers. Partly sunny.13 mph93%29.86 "Hg4 mi
1:20 PM37 °FSprinkles. Low clouds.14 mph93%29.89 "HgN/A
12:50 PM37 °FSprinkles. Low clouds.16 mph93%29.89 "HgN/A
11:54 AM36 °FSprinkles. More clouds than sun.13 mph93%29.95 "HgN/A
11:20 AM34 °FLight snow. Low clouds.10 mph93%29.95 "Hg4 mi
10:50 AM34 °FLight snow. Low clouds.16 mph93%29.98 "Hg2 mi
10:20 AM36 °FLight rain. Partly sunny.15 mph93%29.98 "HgN/A
9:50 AM36 °FLight rain. Low clouds.14 mph93%30.01 "Hg4 mi
9:20 AM37 °FLight rain. Mostly cloudy.16 mph87%30.01 "Hg4 mi
8:50 AM37 °FLight rain. Low clouds.16 mph87%30.01 "Hg5 mi
8:20 AM36 °FRain showers. Passing clouds.15 mph93%30.04 "Hg4 mi
7:50 AM36 °FSprinkles. Passing clouds.16 mph93%30.04 "HgN/A
7:20 AM37 °FSprinkles. Passing clouds.8 mph87%30.04 "HgN/A
6:50 AM36 °FPassing clouds.13 mph87%30.07 "HgN/A
6:20 AM36 °FPartly cloudy.9 mph87%30.07 "HgN/A
5:50 AM34 °FPassing clouds.8 mph87%30.09 "HgN/A
5:20 AM32 °FPartly cloudy.7 mph87%30.12 "HgN/A
4:50 AM32 °FPassing clouds.5 mph87%30.12 "HgN/A
4:20 AM30 °FPartly cloudy.1 mph86%30.15 "HgN/A
3:50 AM28 °FPassing clouds.1 mph86%30.15 "HgN/A
3:20 AM28 °FPassing clouds.1 mph93%30.18 "HgN/A
2:50 AM28 °FChilly.2 mph93%30.18 "HgN/A
2:20 AM28 °FChilly.1 mph86%30.18 "HgN/A
1:50 AM28 °FChilly.5 mph93%30.18 "HgN/A
1:20 AM30 °FPassing clouds.2 mph93%30.18 "HgN/A
12:50 AM30 °FPassing clouds.3 mph86%30.18 "HgN/A
12:20 AM34 °FSnow flurries. Passing clouds.8 mph87%30.21 "HgN/A
11:50 PM
Dec 25
34 °FLight snow. Passing clouds.2 mph93%30.21 "HgN/A
11:20 PM34 °FPassing clouds.7 mph87%30.21 "HgN/A
10:50 PM34 °FPassing clouds.1 mph87%30.21 "HgN/A
10:20 PM32 °FPassing clouds.1 mph87%30.21 "HgN/A
9:50 PM28 °FChilly.1 mph93%30.21 "HgN/A
9:20 PM32 °FPassing clouds.1 mph93%30.21 "HgN/A
8:50 PM32 °FPassing clouds.1 mph93%30.21 "HgN/A
8:20 PM32 °FPassing clouds.No wind100%30.21 "HgN/A
7:50 PM34 °FLight snow. Mostly cloudy.2 mph93%30.24 "HgN/A
7:20 PM34 °FLight snow. Passing clouds.3 mph93%30.21 "Hg6 mi
Weather by CustomWeather, © 2014

See weather overviewHow to use our weather pages